Weather in Betlitsa

Russia / Kaluga Oblast     54°00′50″N   33°56′42″E
temp.,
°C
wind,
m/s
gust,
m/s
humid.,
%
clouds,
%
prec.,
mm/h
press.,
hPa
HPBL,
m
6 march, sat
sat600:00−7wnw269058 0.0 1016184
03:00−6nnw489373 0.4 1018627
06:00−10nw239146 0.0 101972
09:00−7wnw359052 0.0 1020281
12:00−4wnw35721 0.0 1020983
15:00−3wnw476448 0.2 10191440
18:00−6w387878 0.1 1019351
21:00−8w3108452 0.1 1018316
7 march, sun
sun700:00−8wsw4128412 0.0 1016435
03:00−7sw6148256 0.0 1013626
06:00−5sw71682100 0.1 1008891
09:00−3sw91786100 0.4 10031161
12:00−1wsw91889100 1.2 9991410
15:00−4nnw71193100 4.2 999617
18:00−4w5127464 0.4 1001784
21:00−6w5157362 0.8 1001710
8 march, mon
mon800:00−5wsw616749 0.0 9991191
03:00−8wnw7147053 0.2 10001170
06:00−10wnw7158127 0.0 1003905
09:00−8nw5108263 0.3 1006801
12:00−6wnw597633 0.0 1007942
15:00−5wnw597865 0.1 10091078
18:00−6wnw4883100 0.1 1010716
21:00−8nw2795100 0.2 1013328
9 march, tue
tue900:00−11nnw249698 0.0 1014113
03:00−12nnw249698 0.0 1015125
06:00−12nnw2596100 0.0 1016196
09:00−11nnw3689100 0.1 1018464
12:00−9nnw3577100 0.0 1019745
15:00−8nw457391 0.0 1020847
18:00−10nw258451 0.0 1020160
21:00−13w229226 0.0 102325
10 march, wed
wed1000:00−13w249394 0.0 1023110
03:00−11sw269297 0.1 1022215
06:00−10sw4994100 1.3 1021510
09:00−7w51193100 2.7 1020687
12:00−5w5988100 0.9 1021820
15:00−7ne4793100 2.1 1021360
18:00−10ene4793100 0.6 1022379
21:00−12e3793100 0.9 1024359